N1YZ Weather Reports


time (UTC)temp
C
wind
direction
speed
KPH
gust
KPH
rain 1hr
cm
rain 24hr
cm
rain mn
cm
humidity
%
barometer
mb
20260507120218 15 43 0.0 0.0 0.00 0.91 0.91 99 1031.5
20260507115714 15 43 0.0 0.0 0.00 0.91 0.91 99 1031.6
20260507115210 15 43 0.0 0.0 0.00 0.91 0.91 99 1031.6
20260507114706 15 58 0.0 0.0 0.00 0.91 0.91 99 1031.6
20260507114204 15 20 0.0 0.0 0.00 0.91 0.91 99 1031.8
20260507113701 15 58 0.0 0.0 0.00 0.91 0.91 99 1031.6
20260507113157 15 41 0.0 0.0 0.00 0.91 0.91 99 1031.6
20260507112655 15 43 0.0 0.0 0.00 0.91 0.91 99 1031.2
20260507112152 15 41 0.0 0.0 0.00 0.91 0.91 99 1031.1
20260507111649 15 34 0.0 0.0 0.00 0.91 0.91 99 1031.2
20260507111146 15 53 0.0 0.0 0.00 0.91 0.91 99 1031.4
20260507110642 15 142 1.6 3.2 0.00 0.91 0.91 99 1031.4
20260507110139 15 69 0.0 0.0 0.00 0.91 0.91 99 1031.6
20260507105636 15 224 0.0 0.0 0.00 0.91 0.91 99 1031.7
20260507105131 15 179 0.0 0.0 0.00 0.91 0.91 99 1031.2
20260507104629 16 169 1.6 3.2 0.00 0.91 0.91 99 1031.0
20260507104125 16 122 0.0 0.0 0.00 0.91 0.91 99 1030.7
20260507103621 16 56 0.0 0.0 0.00 0.91 0.91 99 1030.5
20260507103119 16 155 0.0 0.0 0.00 0.91 0.91 99 1030.4
20260507102615 16 52 0.0 0.0 0.00 0.91 0.91 99 1030.6
20260507102111 17 128 0.0 0.0 0.00 0.91 0.91 99 1030.5
20260507101607 17 152 1.6 3.2 0.00 0.91 0.91 99 1030.5
20260507101103 17 168 0.0 0.0 0.00 0.91 0.91 99 1030.0
20260507100600 17 32 0.0 0.0 0.00 0.91 0.91 99 1029.5
20260507100058 17 29 0.0 0.0 0.00 0.91 0.91 99 1029.8
20260507095555 17 29 0.0 0.0 0.00 0.91 0.91 99 1030.0
20260507095047 17 30 0.0 0.0 0.00 0.91 0.91 99 1030.2
20260507094543 17 30 0.0 0.0 0.00 0.91 0.91 99 1030.0
20260507094040 17 29 0.0 0.0 0.00 0.91 0.91 99 1029.9
20260507093537 17 29 0.0 0.0 0.00 0.91 0.91 99 1029.8
20260507093036 17 28 0.0 0.0 0.00 0.91 0.91 99 1029.9
20260507092532 17 11 0.0 0.0 0.00 0.91 0.91 99 1029.9
20260507092029 17 26 0.0 0.0 0.00 0.91 0.91 99 1030.0
20260507091526 17 31 0.0 0.0 0.18 0.91 0.91 99 1029.7
20260507091022 17 359 0.0 0.0 0.36 0.91 0.91 99 1029.8
20260507090518 17 4 0.0 0.0 0.48 0.89 0.89 99 1030.0
20260507090015 18 2 0.0 0.0 0.71 0.86 0.86 99 1029.7
20260507085512 17 1 0.0 0.0 1.80 0.81 0.81 99 1029.9
20260507085009 18 35 0.0 0.0 1.55 0.74 0.74 99 1029.8
20260507084505 18 43 0.0 0.0 0.71 0.53 0.53 99 1029.9
20260507084002 18 44 0.0 0.0 0.61 0.51 0.51 99 1029.9
20260507083458 18 37 0.0 0.0 0.00 0.41 0.41 99 1029.8
20260507082955 18 9 0.0 0.0 0.00 0.41 0.41 99 1029.6
20260507082451 18 6 0.0 0.0 0.00 0.41 0.41 99 1029.2
20260507081948 18 1 0.0 0.0 0.00 0.41 0.41 99 1029.5
20260507081444 18 48 0.0 0.0 0.00 0.41 0.41 99 1029.5
20260507080941 18 48 0.0 0.0 0.00 0.41 0.41 99 1029.7
20260507080437 18 48 0.0 0.0 0.00 0.41 0.41 99 1029.6
20260507075932 18 46 0.0 0.0 0.00 0.41 0.41 99 1029.4
20260507075429 18 45 0.0 0.0 0.18 0.41 0.41 99 1029.6
20260507074926 18 37 0.0 0.0 0.18 0.41 0.41 99 1029.5
20260507074422 18 37 0.0 0.0 0.00 0.38 0.38 99 1029.5
20260507073920 18 38 0.0 0.0 0.30 0.38 0.38 99 1029.7
20260507073416 18 38 0.0 0.0 0.71 0.38 0.38 99 1029.9
20260507072913 18 38 0.0 0.0 0.61 0.33 0.33 99 1029.7
20260507072410 18 47 0.0 0.0 0.18 0.25 0.25 99 1029.7
20260507071903 18 48 0.0 0.0 0.18 0.23 0.23 99 1029.8
20260507071359 18 53 0.0 0.0 0.30 0.23 0.23 99 1029.3
20260507070855 18 147 0.0 1.6 0.43 0.20 0.20 99 1029.4
20260507070353 18 351 1.6 1.6 0.48 0.18 0.18 99 1028.5
20260507065850 18 22 0.0 0.0 0.18 0.13 0.13 99 1028.3
20260507065346 18 21 1.6 1.6 0.00 0.10 0.10 99 1029.0
20260507064844 18 12 0.0 0.0 0.00 0.10 0.10 99 1030.1
20260507064342 18 48 0.0 0.0 0.00 0.10 0.10 99 1030.7
20260507063840 18 48 0.0 0.0 0.00 0.10 0.10 99 1030.6
20260507063336 18 48 0.0 0.0 0.00 0.10 0.10 99 1030.3
20260507062833 18 94 0.0 0.0 0.00 0.10 0.10 99 1030.1
20260507062330 18 43 0.0 0.0 0.00 0.10 0.10 99 1030.4
20260507061828 18 50 0.0 0.0 0.00 0.10 0.10 99 1030.9
20260507061325 18 49 0.0 0.0 0.00 0.10 0.10 99 1030.5
20260507060824 18 51 0.0 0.0 0.00 0.10 0.10 99 1030.8
20260507060320 18 35 0.0 0.0 0.00 0.10 0.10 99 1030.8
20260507055817 18 34 0.0 0.0 0.00 0.10 0.10 99 1030.7
20260507055312 18 35 0.0 0.0 0.00 0.10 0.10 99 1030.6
20260507054809 18 11 0.0 0.0 0.00 0.10 0.10 99 1030.9
20260507054305 18 37 0.0 0.0 0.13 0.10 0.10 99 1031.1
20260507053803 18 42 0.0 0.0 0.13 0.10 0.10 99 1031.2
20260507053300 18 26 0.0 0.0 0.00 0.08 0.08 99 1031.5
20260507052759 18 11 0.0 0.0 0.00 0.08 0.08 99 1031.3
20260507052255 18 11 0.0 0.0 0.18 0.08 0.08 99 1031.3
20260507051753 18 10 0.0 0.0 0.30 0.08 0.08 99 1031.1
20260507051250 18 11 0.0 0.0 0.30 0.05 0.05 99 1031.3
20260507050747 19 359 0.0 0.0 0.18 0.03 0.03 99 1030.9
20260507050243 19 352 0.0 0.0 0.00 0.00 0.00 99 1031.2
20260507045740 19 34 0.0 0.0 0.00 1.52 1.52 99 1031.0
20260507045236 19 33 0.0 0.0 0.00 1.52 1.52 99 1031.0
20260507044734 19 46 0.0 0.0 0.00 1.52 1.52 99 1030.9
20260507044230 19 58 0.0 0.0 0.00 1.52 1.52 99 1030.9
20260507043726 19 61 0.0 0.0 0.00 1.52 1.52 99 1030.9
20260507043223 19 39 0.0 0.0 0.00 1.52 1.52 99 1031.0
20260507042720 19 175 0.0 0.0 0.13 1.52 1.52 99 1031.1
20260507042214 19 178 0.0 0.0 0.13 1.52 1.52 99 1031.2
20260507041712 19 91 0.0 0.0 0.36 1.50 1.50 99 1031.7
20260507041209 19 26 0.0 0.0 0.66 1.50 1.50 99 1031.6
20260507040706 19 167 0.0 0.0 0.61 1.47 1.47 99 1031.8
20260507040202 19 346 0.0 0.0 0.30 1.40 1.40 99 1030.6
20260507035658 19 149 0.0 0.0 0.61 1.37 1.37 99 1030.6
20260507035154 19 29 0.0 0.0 0.71 1.35 1.35 99 1030.6
20260507034651 19 83 0.0 0.0 0.71 1.30 1.30 99 1030.8
20260507034148 19 16 0.0 0.0 0.48 1.22 1.22 99 1031.0
20260507033647 18 153 0.0 0.0 0.18 1.17 1.17 99 1031.0
20260507033143 19 28 0.0 0.0 0.18 1.14 1.14 99 1031.6
20260507032641 18 22 0.0 0.0 0.18 1.14 1.14 99 1030.7
20260507032137 19 17 0.0 0.0 0.13 1.12 1.12 99 1031.2
20260507031634 19 7 0.0 0.0 0.30 1.12 1.12 99 1031.8
20260507031130 19 9 0.0 0.0 0.30 1.09 1.09 99 1032.2
20260507030627 19 37 0.0 0.0 1.19 1.07 1.07 99 1032.7
20260507030125 19 154 0.0 1.6 1.37 1.04 1.04 99 1032.3
20260507025622 19 29 0.0 0.0 0.89 0.86 0.86 99 1032.2
20260507025119 19 31 0.0 0.0 0.79 0.81 0.81 99 1032.9
20260507024617 19 26 0.0 0.0 0.43 0.74 0.74 99 1032.6
20260507024114 19 26 0.0 0.0 0.13 0.69 0.69 99 1032.0
20260507023609 20 3 0.0 0.0 0.18 0.66 0.66 99 1032.0
20260507023107 20 4 0.0 0.0 0.30 0.66 0.66 99 1031.7
20260507022604 20 23 0.0 0.0 0.30 0.64 0.64 99 1031.5
20260507022059 20 38 0.0 0.0 0.30 0.61 0.61 99 1031.2
20260507021555 20 42 0.0 0.0 0.13 0.58 0.58 99 1031.5
20260507021051 20 38 0.0 0.0 0.00 0.56 0.56 99 1031.4
20260507020550 21 182 0.0 0.0 0.00 0.56 0.56 99 1031.1
20260507020045 21 169 0.0 0.0 0.00 0.56 0.56 99 1031.0
20260507015543 21 314 0.0 0.0 0.00 0.56 0.56 99 1030.8
20260507015035 21 351 0.0 0.0 0.00 0.56 0.56 99 1031.2
20260507014531 21 351 0.0 0.0 0.00 0.56 0.56 99 1031.1
20260507014027 21 350 0.0 0.0 0.00 0.56 0.56 99 1031.1
20260507013524 21 351 0.0 0.0 0.00 0.56 0.56 99 1030.8
20260507013021 21 351 0.0 0.0 0.00 0.56 0.56 99 1030.8
20260507012518 21 350 0.0 0.0 0.00 0.56 0.56 99 1030.8
20260507012014 21 351 0.0 0.0 0.00 0.56 0.56 99 1030.8
20260507011512 21 356 0.0 0.0 0.00 0.56 0.56 99 1030.9
20260507011008 21 6 0.0 0.0 0.00 0.56 0.56 99 1030.9
20260507010502 21 4 0.0 0.0 0.00 0.56 0.56 99 1030.1
20260507005959 21 4 0.0 0.0 0.00 0.56 0.56 99 1030.0
20260507005457 21 3 0.0 0.0 0.00 0.56 0.56 99 1030.1
20260507004948 21 2 0.0 0.0 0.00 0.56 0.56 99 1030.5
20260507004444 21 0 0.0 0.0 0.00 0.56 0.56 99 1031.0
20260507003942 21 347 0.0 0.0 0.18 0.56 0.56 99 1030.9
20260507003437 21 5 0.0 0.0 0.18 0.56 0.56 99 1030.9
20260507002932 21 75 0.0 0.0 0.00 0.53 0.53 99 1031.0
20260507002428 21 46 0.0 0.0 0.00 0.53 0.53 99 1030.2
20260507001925 21 347 0.0 0.0 0.00 0.53 0.53 99 1030.4
20260507001422 22 352 3.2 3.2 0.00 0.53 0.53 99 1030.4
20260507000914 22 341 0.0 0.0 0.00 0.53 0.53 99 1030.5
20260507000409 22 340 0.0 0.0 0.00 0.53 0.53 99 1031.0
20260506235905 22 354 0.0 0.0 0.00 0.53 0.53 99 1030.5
20260506235403 22 355 0.0 0.0 0.00 0.53 0.53 99 1030.6
20260506234858 22 355 0.0 0.0 0.00 0.53 0.53 99 1030.3
20260506234356 22 1 0.0 0.0 0.00 0.53 0.53 99 1030.4
20260506233854 22 349 0.0 0.0 0.00 0.53 0.53 99 1030.8
20260506233349 22 349 0.0 0.0 0.00 0.53 0.53 99 1031.4
20260506232847 22 348 0.0 0.0 0.00 0.53 0.53 99 1030.7
20260506232342 22 348 0.0 0.0 0.00 0.53 0.53 99 1031.1
20260506231839 22 358 0.0 0.0 0.00 0.53 0.53 99 1031.3
20260506231337 22 359 0.0 0.0 0.00 0.53 0.53 99 1031.5
20260506230834 22 2 0.0 0.0 0.00 0.53 0.53 99 1031.2
20260506230331 22 325 3.2 3.2 0.00 0.53 0.53 99 1031.2
20260506225827 22 358 0.0 0.0 0.00 0.53 0.53 99 1031.7
20260506225324 22 356 0.0 0.0 0.00 0.53 0.53 99 1031.3
20260506224821 22 348 0.0 0.0 0.00 0.53 0.53 99 1031.3
20260506224319 22 347 0.0 0.0 0.00 0.53 0.53 99 1031.1
20260506223815 22 346 3.2 3.2 0.00 0.53 0.53 99 1031.2
20260506223310 22 348 1.6 1.6 0.00 0.53 0.53 99 1030.7
20260506222807 22 346 0.0 0.0 0.00 0.53 0.53 99 1031.0
20260506222305 22 347 0.0 0.0 0.00 0.53 0.53 99 1031.2
20260506221800 22 353 0.0 0.0 0.00 0.53 0.53 99 1031.2
20260506221258 22 356 0.0 0.0 0.00 0.53 0.53 99 1030.9
20260506220755 22 6 0.0 0.0 0.00 0.53 0.53 99 1031.1
20260506220249 22 351 0.0 0.0 0.00 0.53 0.53 99 1031.3
20260506215747 22 351 0.0 0.0 0.00 0.53 0.53 99 1031.3
20260506215242 21 351 0.0 0.0 0.00 0.53 0.53 99 1031.2
20260506214734 21 352 0.0 0.0 0.00 0.53 0.53 99 1031.2
20260506214231 21 347 1.6 3.2 0.00 0.53 0.53 99 1031.3
20260506213729 21 8 1.6 3.2 0.13 0.53 0.53 99 1031.4
20260506213226 22 3 1.6 1.6 0.13 0.53 0.53 99 1031.3
20260506212722 22 346 3.2 3.2 0.18 0.51 0.51 99 1031.6
20260506212218 22 336 1.6 3.2 0.18 0.51 0.51 99 1031.5
20260506211708 22 2 0.0 0.0 0.18 0.51 0.51 99 1031.6
20260506211204 22 6 0.0 0.0 0.00 0.48 0.48 99 1031.4
20260506210701 22 341 0.0 0.0 0.18 0.48 0.48 98 1031.8
20260506210158 22 3 0.0 0.0 0.89 0.48 0.48 97 1032.0
20260506205656 22 4 0.0 0.0 2.39 0.46 0.46 97 1031.7
20260506205156 22 344 1.6 1.6 2.11 0.36 0.36 95 1031.5
20260506204648 22 5 0.0 0.0 0.30 0.05 0.05 92 1031.8
20260506204145 23 6 0.0 0.0 0.00 0.00 0.00 91 1031.8
20260506203643 23 26 0.0 0.0 0.00 0.00 0.00 91 1031.8
20260506203140 23 16 0.0 0.0 0.00 0.00 0.00 90 1031.6
20260506202638 23 356 1.6 3.2 0.00 0.00 0.00 90 1031.5
20260506202133 23 343 3.2 3.2 0.00 0.00 0.00 90 1031.7
20260506201631 23 8 0.0 0.0 0.00 0.00 0.00 89 1031.8
20260506201127 23 9 0.0 0.0 0.00 0.00 0.00 89 1032.0
20260506200624 23 350 1.6 1.6 0.00 0.00 0.00 89 1031.9
20260506200121 23 324 1.6 1.6 0.00 0.00 0.00 89 1032.0
20260506195617 23 341 1.6 3.2 0.00 0.00 0.00 88 1032.1
20260506195113 23 3 0.0 0.0 0.00 0.00 0.00 88 1032.0
20260506194611 23 12 0.0 0.0 0.00 0.00 0.00 88 1032.3
20260506194107 24 339 0.0 1.6 0.00 0.00 0.00 87 1032.3
20260506193600 24 13 0.0 0.0 0.00 0.00 0.00 86 1032.7
20260506193057 24 4 0.0 0.0 0.00 0.00 0.00 86 1032.8
20260506192553 24 352 0.0 0.0 0.00 0.00 0.00 85 1032.6
20260506192049 24 29 0.0 0.0 0.00 0.00 0.00 86 1032.8
20260506191546 24 11 0.0 0.0 0.00 0.00 0.00 86 1033.0
20260506191042 23 342 0.0 0.0 0.00 0.00 0.00 86 1032.8
20260506190539 23 352 1.6 1.6 0.00 0.00 0.00 86 1032.8
20260506190036 23 348 0.0 0.0 0.00 0.00 0.00 86 1033.1
20260506185533 23 5 0.0 0.0 0.00 0.00 0.00 86 1032.9
20260506185029 23 6 0.0 0.0 0.00 0.00 0.00 86 1033.1
20260506184527 24 0 0.0 0.0 0.00 0.00 0.00 85 1033.1
20260506184024 24 102 1.6 3.2 0.00 0.00 0.00 84 1033.1
20260506183519 24 22 0.0 0.0 0.00 0.00 0.00 85 1032.9
20260506183016 24 331 3.2 4.8 0.00 0.00 0.00 84 1033.0
20260506182514 24 329 1.6 3.2 0.00 0.00 0.00 84 1033.4
20260506182010 25 312 1.6 3.2 0.00 0.00 0.00 84 1033.2
20260506181509 24 209 0.0 0.0 0.00 0.00 0.00 84 1033.2
20260506181006 24 347 3.2 3.2 0.00 0.00 0.00 84 1033.3
20260506180502 24 3 0.0 0.0 0.00 0.00 0.00 85 1033.2
20260506175958 24 27 0.0 0.0 0.00 0.00 0.00 85 1033.3
20260506175455 24 70 0.0 0.0 0.00 0.00 0.00 85 1033.3
20260506174952 24 2 0.0 1.6 0.00 0.00 0.00 84 1033.1
20260506174450 24 18 0.0 0.0 0.00 0.00 0.00 84 1033.2
20260506173946 24 352 0.0 0.0 0.00 0.00 0.00 83 1033.5
20260506173444 24 1 3.2 3.2 0.00 0.00 0.00 83 1033.2
20260506172940 24 10 0.0 1.6 0.00 0.00 0.00 83 1033.5
20260506172437 24 345 1.6 3.2 0.00 0.00 0.00 83 1033.4
20260506171928 24 14 1.6 3.2 0.00 0.00 0.00 82 1033.6
20260506171426 24 42 0.0 0.0 0.00 0.00 0.00 83 1033.5
20260506170918 24 333 3.2 3.2 0.00 0.00 0.00 82 1033.5
20260506170414 24 30 0.0 1.6 0.00 0.00 0.00 81 1033.6
20260506165913 24 25 0.0 1.6 0.00 0.00 0.00 80 1033.3
20260506165410 24 3 0.0 1.6 0.00 0.00 0.00 82 1033.4
20260506164906 24 354 3.2 4.8 0.00 0.00 0.00 81 1033.5
20260506164403 24 357 0.0 0.0 0.00 0.00 0.00 82 1033.5
20260506163901 24 359 0.0 1.6 0.00 0.00 0.00 82 1033.7
20260506163356 24 9 0.0 0.0 0.00 0.00 0.00 81 1033.6
20260506162850 25 48 0.0 0.0 0.00 0.00 0.00 80 1033.7
20260506162349 25 305 1.6 3.2 0.00 0.00 0.00 78 1033.4
20260506161841 25 358 0.0 0.0 0.00 0.00 0.00 81 1033.4
20260506161338 25 10 0.0 0.0 0.00 0.00 0.00 79 1033.2
20260506160835 25 12 0.0 0.0 0.00 0.00 0.00 80 1033.4
20260506160331 24 18 0.0 0.0 0.00 0.00 0.00 82 1033.6
20260506155830 24 331 3.2 3.2 0.00 0.00 0.00 82 1033.4
20260506155327 24 23 0.0 0.0 0.00 0.00 0.00 81 1033.2
20260506153439 23 25 0.0 0.0 0.00 0.00 0.00 83 1033.5
20260506152937 23 345 0.0 1.6 0.00 0.00 0.00 83 1033.4
20260506152433 23 320 1.6 1.6 0.00 0.00 0.00 83 1033.7
20260506151932 23 351 0.0 0.0 0.00 0.00 0.00 83 1033.7
20260506151429 23 339 1.6 3.2 0.00 0.00 0.00 83 1033.7
20260506150927 23 1 0.0 0.0 0.00 0.00 0.00 84 1033.9
20260506150422 22 17 0.0 0.0 0.00 0.00 0.00 84 1033.7
20260506145920 22 3 0.0 0.0 0.00 0.00 0.00 84 1033.6
20260506145416 22 17 0.0 0.0 0.00 0.00 0.00 85 1033.7
20260506144913 22 325 3.2 4.8 0.00 0.00 0.00 85 1033.8
20260506144409 22 5 1.6 1.6 0.00 0.00 0.00 86 1033.8
20260506143908 22 354 1.6 1.6 0.00 0.00 0.00 86 1034.0
20260506143405 22 348 0.0 0.0 0.00 0.00 0.00 87 1033.9
20260506142903 22 8 0.0 0.0 0.00 0.00 0.00 87 1033.8
20260506142401 21 15 0.0 0.0 0.00 0.00 0.00 88 1033.7
20260506141859 21 356 3.2 3.2 0.00 0.00 0.00 88 1033.5
20260506141356 21 7 0.0 0.0 0.00 0.00 0.00 89 1034.1
20260506140854 21 18 0.0 0.0 0.00 0.00 0.00 89 1033.6
20260506140351 21 304 3.2 4.8 0.00 0.00 0.00 89 1033.5
20260506135848 21 346 1.6 1.6 0.00 0.00 0.00 91 1033.6
20260506135345 21 29 0.0 0.0 0.00 0.00 0.00 91 1033.6
20260506134841 21 356 0.0 0.0 0.00 0.00 0.00 91 1033.8
20260506134337 20 8 0.0 1.6 0.00 0.00 0.00 91 1034.0
20260506133835 20 12 0.0 0.0 0.00 0.00 0.00 91 1034.2
20260506133331 20 334 0.0 1.6 0.00 0.00 0.00 92 1033.9
20260506132828 20 4 3.2 4.8 0.00 0.00 0.00 92 1034.2
20260506132325 20 13 0.0 1.6 0.00 0.00 0.00 92 1034.2
20260506131823 20 358 3.2 3.2 0.00 0.00 0.00 92 1034.1
20260506131319 20 18 0.0 0.0 0.00 0.00 0.00 93 1034.2
20260506130817 20 19 0.0 0.0 0.00 0.00 0.00 93 1034.3
20260506130313 20 345 0.0 0.0 0.00 0.00 0.00 93 1034.4
20260506125811 20 350 1.6 1.6 0.00 0.00 0.00 93 1034.2
20260506125309 20 343 0.0 0.0 0.00 0.00 0.00 93 1034.1
20260506124807 20 354 0.0 1.6 0.00 0.00 0.00 93 1033.9
20260506124304 20 352 0.0 0.0 0.00 0.00 0.00 93 1034.1
20260506123801 20 348 0.0 0.0 0.00 0.00 0.00 93 1034.0
20260506123300 19 14 3.2 3.2 0.00 0.00 0.00 93 1034.0
20260506122756 19 7 0.0 0.0 0.00 0.00 0.00 93 1033.8
20260506122253 19 272 1.6 4.8 0.00 0.00 0.00 93 1033.8
20260506121751 19 318 4.8 4.8 0.00 0.00 0.00 93 1033.6
20260506121248 19 5 0.0 0.0 0.00 0.00 0.00 92 1033.9
20260506120745 19 8 0.0 0.0 0.00 0.00 0.00 92 1033.5